NORTHEAST SUFFOLK  -  Air Quality Alert Air Quality Alert        NORTHERN NASSAU  -  Air Quality Alert Air Quality Alert        NORTHERN QUEENS  -  Air Quality Alert Air Quality Alert        NORTHWEST SUFFOLK  -  Air Quality Alert Air Quality Alert        SOUTHEAST SUFFOLK  -  Air Quality Alert Air Quality Alert        SOUTHERN NASSAU  -  Air Quality Alert Air Quality Alert        SOUTHERN QUEENS  -  Air Quality Alert Air Quality Alert        SOUTHWEST SUFFOLK  -  Air Quality Alert Air Quality Alert      

Active alerts

Northern Queens
  Details for Northern Queens Air Quality Alert
Southern Queens
  Details for Southern Queens Air Quality Alert
Northern Nassau
  Details for Northern Nassau Air Quality Alert
Southern Nassau
  Details for Southern Nassau Air Quality Alert
Northwest Suffolk
  Details for Northwest Suffolk Air Quality Alert
Southwest Suffolk
  Details for Southwest Suffolk Air Quality Alert
Northeast Suffolk
  Details for Northeast Suffolk Air Quality Alert
Southeast Suffolk
  Details for Southeast Suffolk Air Quality Alert


WXM80 ListenWXM80 Stop

You find our weather info also at:

UK Metoffice

WeatherCloud

Weather Underground

Northeastern Weather Network

AWEKAS

Citizen Weather Observer Program (CWOP)

HAMweather, WeatherForYou, PWS Weather


Weather Underground History page Text

Daily Summary for January 8, 2017 Units:  English    Metric   Both
« Previous Day
Next Day »
Daily Weekly Monthly Yearly Custom
  High: Low: Average:
Temperature: 23.9 °F 17.9 °F 21 °F
Dew Point: 17.3 °F 7.1 °F 11.6 °F
Humidity: 85 % 52 % 67 %
Wind Speed: 13.0 mph 2.0 mph 7 mph
Wind Gust: 29.0 mph - -
Wind:- - WNW
Pressure: 30.55 in 30.11 in -
Precipitation: 0.00 in    
Historical Graphs
 
 
Tabular Data for January 8, 2017
Time Temperature Dew Point Pressure Wind Wind Speed Wind Gust Humidity Rainfall Rate (Hourly)
00:03 21.1 °F 17.3 °F 30.12 in North 6.0 mph 29.0 mph 85 % 0.00 in
00:08 21.2 °F 16.8 °F 30.11 in WNW 5.9 mph 29.0 mph 83 % 0.00 in
00:13 21.3 °F 16.9 °F 30.12 in NNW 4.2 mph 29.0 mph 83 % 0.00 in
00:18 21.2 °F 17.1 °F 30.12 in NNW 7.5 mph 29.0 mph 84 % 0.00 in
00:23 21.2 °F 16.8 °F 30.12 in NNW 6.1 mph 29.0 mph 83 % 0.00 in
00:28 21.2 °F 16.8 °F 30.11 in NNW 2.6 mph 29.0 mph 83 % 0.00 in
00:34 21.1 °F 17.0 °F 30.11 in NW 6.8 mph 29.0 mph 84 % 0.00 in
00:39 21.1 °F 16.7 °F 30.12 in North 6.3 mph 29.0 mph 83 % 0.00 in
00:44 21.1 °F 17.0 °F 30.12 in NW 2.0 mph 29.0 mph 84 % 0.00 in
00:49 21.1 °F 17.3 °F 30.12 in NW 2.0 mph 29.0 mph 85 % 0.00 in
00:54 21.0 °F 17.2 °F 30.12 in NNW 5.0 mph 29.0 mph 85 % 0.00 in
00:59 21.0 °F 16.9 °F 30.12 in North 6.9 mph 29.0 mph 84 % 0.00 in
01:04 21.0 °F 16.9 °F 30.12 in WSW 4.2 mph 29.0 mph 84 % 0.00 in
01:09 21.0 °F 16.4 °F 30.12 in NW 5.3 mph 29.0 mph 82 % 0.00 in
01:14 20.9 °F 16.8 °F 30.12 in NNW 5.0 mph 10.0 mph 84 % 0.00 in
01:19 20.9 °F 16.5 °F 30.12 in NW 6.0 mph 29.0 mph 83 % 0.00 in
01:24 20.9 °F 16.8 °F 30.12 in NNW 5.0 mph 13.0 mph 84 % 0.00 in
01:29 21.0 °F 16.4 °F 30.13 in North 8.0 mph 16.0 mph 82 % 0.00 in
01:34 21.1 °F 16.7 °F 30.13 in North 3.0 mph 12.0 mph 83 % 0.00 in
01:39 21.0 °F 16.6 °F 30.14 in NNW 8.6 mph 29.0 mph 83 % 0.00 in
01:44 21.0 °F 16.9 °F 30.14 in North 4.5 mph 29.0 mph 84 % 0.00 in
01:49 21.0 °F 16.6 °F 30.14 in NNW 6.0 mph 16.0 mph 83 % 0.00 in
01:54 20.9 °F 16.3 °F 30.14 in NNW 7.0 mph 13.0 mph 82 % 0.00 in
01:59 20.8 °F 16.2 °F 30.15 in NNW 9.2 mph 29.0 mph 82 % 0.00 in
02:04 20.7 °F 15.8 °F 30.15 in North 8.2 mph 29.0 mph 81 % 0.00 in
02:09 20.7 °F 15.7 °F 30.15 in NNW 7.0 mph 12.0 mph 81 % 0.00 in
02:14 20.6 °F 15.9 °F 30.15 in NW 5.0 mph 15.0 mph 82 % 0.00 in
02:19 20.4 °F 15.8 °F 30.16 in NW 5.0 mph 17.0 mph 82 % 0.00 in
02:24 20.3 °F 16.0 °F 30.16 in WNW 3.6 mph 29.0 mph 83 % 0.00 in
02:29 20.2 °F 15.9 °F 30.16 in NW 7.0 mph 16.0 mph 83 % 0.00 in
02:34 20.0 °F 15.7 °F 30.16 in NW 5.0 mph 10.0 mph 83 % 0.00 in
02:39 20.0 °F 15.6 °F 30.16 in NW 6.0 mph 10.0 mph 83 % 0.00 in
02:44 19.9 °F 15.6 °F 30.16 in NNW 5.0 mph 12.0 mph 83 % 0.00 in
02:49 19.8 °F 15.5 °F 30.16 in NNW 3.0 mph 10.0 mph 83 % 0.00 in
02:54 19.7 °F 15.7 °F 30.16 in NW 6.0 mph 15.0 mph 84 % 0.00 in
02:59 19.7 °F 15.4 °F 30.16 in WNW 4.4 mph 29.0 mph 83 % 0.00 in
03:04 19.7 °F 15.4 °F 30.16 in North 3.2 mph 29.0 mph 83 % 0.00 in
03:09 19.6 °F 15.3 °F 30.16 in North 3.6 mph 29.0 mph 83 % 0.00 in
03:14 19.5 °F 15.2 °F 30.16 in NW 6.3 mph 29.0 mph 83 % 0.00 in
03:19 19.5 °F 14.9 °F 30.16 in NW 6.2 mph 29.0 mph 82 % 0.00 in
03:24 19.5 °F 15.2 °F 30.16 in NW 4.9 mph 29.0 mph 83 % 0.00 in
03:29 19.5 °F 15.2 °F 30.16 in WNW 6.2 mph 29.0 mph 83 % 0.00 in
03:35 19.5 °F 15.2 °F 30.16 in NNW 3.3 mph 29.0 mph 83 % 0.00 in
03:40 19.4 °F 15.1 °F 30.17 in WNW 4.8 mph 29.0 mph 83 % 0.00 in
03:45 19.4 °F 15.1 °F 30.16 in WNW 6.0 mph 29.0 mph 83 % 0.00 in
03:50 19.4 °F 15.1 °F 30.17 in North 5.1 mph 29.0 mph 83 % 0.00 in
03:55 19.4 °F 15.1 °F 30.17 in West 5.0 mph 29.0 mph 83 % 0.00 in
04:00 19.3 °F 15.0 °F 30.17 in North 4.3 mph 29.0 mph 83 % 0.00 in
04:05 19.2 °F 14.9 °F 30.17 in WNW 4.5 mph 29.0 mph 83 % 0.00 in
04:10 19.2 °F 14.6 °F 30.17 in West 5.9 mph 29.0 mph 82 % 0.00 in
04:16 19.2 °F 14.6 °F 30.17 in WNW 8.6 mph 29.0 mph 82 % 0.00 in
04:21 19.1 °F 14.5 °F 30.17 in West 4.9 mph 29.0 mph 82 % 0.00 in
04:26 19.2 °F 14.6 °F 30.17 in WNW 8.9 mph 29.0 mph 82 % 0.00 in
04:31 19.2 °F 14.3 °F 30.17 in NW 5.9 mph 29.0 mph 81 % 0.00 in
04:36 19.1 °F 14.2 °F 30.17 in NW 5.2 mph 29.0 mph 81 % 0.00 in
04:41 19.0 °F 13.8 °F 30.18 in WNW 5.5 mph 29.0 mph 80 % 0.00 in
04:46 19.0 °F 14.1 °F 30.17 in NW 9.8 mph 29.0 mph 81 % 0.00 in
04:51 19.0 °F 13.8 °F 30.17 in West 5.5 mph 29.0 mph 80 % 0.00 in
04:56 18.9 °F 13.7 °F 30.18 in NW 8.7 mph 29.0 mph 80 % 0.00 in
05:01 18.9 °F 13.7 °F 30.18 in WNW 8.6 mph 29.0 mph 80 % 0.00 in
05:06 18.9 °F 13.7 °F 30.18 in NW 3.0 mph 29.0 mph 80 % 0.00 in
05:11 18.8 °F 13.7 °F 30.19 in WNW 8.0 mph 29.0 mph 80 % 0.00 in
05:16 18.8 °F 13.4 °F 30.18 in West 6.1 mph 29.0 mph 79 % 0.00 in
05:21 18.8 °F 13.4 °F 30.19 in WNW 9.1 mph 29.0 mph 79 % 0.00 in
05:26 18.7 °F 13.3 °F 30.19 in WNW 5.9 mph 29.0 mph 79 % 0.00 in
05:32 18.7 °F 13.3 °F 30.19 in NW 7.6 mph 29.0 mph 79 % 0.00 in
05:37 18.6 °F 12.9 °F 30.19 in WNW 5.4 mph 29.0 mph 78 % 0.00 in
05:42 18.6 °F 12.9 °F 30.19 in NNW 6.4 mph 29.0 mph 78 % 0.00 in
05:47 18.6 °F 13.2 °F 30.19 in WNW 10.5 mph 29.0 mph 79 % 0.00 in
05:52 18.6 °F 13.2 °F 30.19 in NW 5.8 mph 29.0 mph 79 % 0.00 in
05:57 18.6 °F 12.9 °F 30.19 in NW 11.2 mph 29.0 mph 78 % 0.00 in
06:02 18.5 °F 12.8 °F 30.19 in WNW 11.5 mph 29.0 mph 78 % 0.00 in
06:07 18.6 °F 12.9 °F 30.19 in NNW 4.6 mph 29.0 mph 78 % 0.00 in
06:12 18.5 °F 12.5 °F 30.20 in WNW 4.5 mph 29.0 mph 77 % 0.00 in
06:17 18.5 °F 12.5 °F 30.20 in NW 9.5 mph 29.0 mph 77 % 0.00 in
06:22 18.5 °F 12.5 °F 30.20 in NW 5.3 mph 29.0 mph 77 % 0.00 in
06:27 18.4 °F 12.1 °F 30.20 in WNW 2.2 mph 29.0 mph 76 % 0.00 in
06:32 18.3 °F 12.0 °F 30.21 in NW 9.1 mph 29.0 mph 76 % 0.00 in
06:37 18.2 °F 11.6 °F 30.21 in WNW 7.7 mph 29.0 mph 75 % 0.00 in
06:42 18.1 °F 11.2 °F 30.21 in WSW 6.3 mph 29.0 mph 74 % 0.00 in
06:48 18.0 °F 11.1 °F 30.21 in WSW 6.4 mph 29.0 mph 74 % 0.00 in
06:53 18.0 °F 11.1 °F 30.22 in WSW 8.2 mph 29.0 mph 74 % 0.00 in
06:58 17.9 °F 10.7 °F 30.21 in WNW 7.0 mph 29.0 mph 73 % 0.00 in
07:03 17.9 °F 10.4 °F 30.21 in WNW 6.9 mph 29.0 mph 72 % 0.00 in
07:08 17.9 °F 10.7 °F 30.21 in West 5.0 mph 29.0 mph 73 % 0.00 in
07:13 17.9 °F 10.4 °F 30.21 in SW 9.7 mph 29.0 mph 72 % 0.00 in
07:18 18.0 °F 10.5 °F 30.21 in NNW 7.3 mph 29.0 mph 72 % 0.00 in
07:23 18.0 °F 10.8 °F 30.21 in WSW 11.0 mph 29.0 mph 73 % 0.00 in
07:28 18.0 °F 10.5 °F 30.22 in NNW 11.3 mph 29.0 mph 72 % 0.00 in
07:33 18.0 °F 10.8 °F 30.22 in NW 6.4 mph 29.0 mph 73 % 0.00 in
07:38 18.0 °F 11.1 °F 30.22 in SSW 6.3 mph 29.0 mph 74 % 0.00 in
07:43 18.1 °F 10.6 °F 30.22 in SW 9.0 mph 29.0 mph 72 % 0.00 in
07:49 18.1 °F 10.6 °F 30.22 in WSW 9.9 mph 29.0 mph 72 % 0.00 in
07:54 18.2 °F 10.4 °F 30.22 in West 8.4 mph 29.0 mph 71 % 0.00 in
07:59 18.2 °F 10.7 °F 30.23 in WNW 7.5 mph 29.0 mph 72 % 0.00 in
08:04 18.3 °F 10.8 °F 30.23 in NW 9.2 mph 29.0 mph 72 % 0.00 in
08:09 18.4 °F 10.6 °F 30.23 in WNW 8.7 mph 29.0 mph 71 % 0.00 in
08:14 18.4 °F 10.6 °F 30.23 in WSW 8.3 mph 29.0 mph 71 % 0.00 in
08:25 18.7 °F 11.2 °F 30.24 in SW 8.3 mph 29.0 mph 72 % 0.00 in
08:39 18.8 °F 10.9 °F 30.24 in NW 8.7 mph 29.0 mph 71 % 0.00 in
09:15 19.4 °F 11.2 °F 30.24 in WNW 5.1 mph 29.0 mph 70 % 0.00 in
09:24 19.4 °F 11.2 °F 30.24 in WNW 7.0 mph 29.0 mph 70 % 0.00 in
09:31 19.6 °F 11.4 °F 30.24 in West 9.2 mph 29.0 mph 70 % 0.00 in
09:37 19.7 °F 11.2 °F 30.25 in West 6.0 mph 29.0 mph 69 % 0.00 in
09:42 19.8 °F 11.3 °F 30.24 in WNW 4.2 mph 29.0 mph 69 % 0.00 in
09:47 20.0 °F 11.5 °F 30.25 in WNW 4.2 mph 29.0 mph 69 % 0.00 in
09:52 20.1 °F 11.6 °F 30.25 in WNW 6.6 mph 29.0 mph 69 % 0.00 in
09:57 20.0 °F 11.1 °F 30.25 in West 7.9 mph 29.0 mph 68 % 0.00 in
10:02 20.0 °F 11.8 °F 30.25 in NW 4.0 mph 29.0 mph 70 % 0.00 in
10:07 20.0 °F 11.5 °F 30.25 in NW 8.3 mph 29.0 mph 69 % 0.00 in
10:12 20.0 °F 11.1 °F 30.25 in WNW 4.1 mph 29.0 mph 68 % 0.00 in
10:17 20.0 °F 10.8 °F 30.24 in NW 6.5 mph 29.0 mph 67 % 0.00 in
10:23 20.2 °F 11.0 °F 30.24 in WNW 8.3 mph 29.0 mph 67 % 0.00 in
10:28 20.3 °F 10.7 °F 30.24 in WSW 7.9 mph 29.0 mph 66 % 0.00 in
10:33 20.5 °F 10.9 °F 30.24 in West 8.3 mph 29.0 mph 66 % 0.00 in
10:38 20.7 °F 11.1 °F 30.24 in WNW 4.4 mph 29.0 mph 66 % 0.00 in
10:43 20.9 °F 11.7 °F 30.23 in WNW 7.4 mph 29.0 mph 67 % 0.00 in
10:48 21.0 °F 11.1 °F 30.23 in West 9.8 mph 29.0 mph 65 % 0.00 in
10:53 21.2 °F 11.3 °F 30.24 in NW 5.4 mph 29.0 mph 65 % 0.00 in
10:58 21.3 °F 11.7 °F 30.24 in NW 6.9 mph 29.0 mph 66 % 0.00 in
11:03 21.6 °F 11.6 °F 30.24 in North 5.0 mph 29.0 mph 65 % 0.00 in
11:08 21.6 °F 11.3 °F 30.24 in NW 11.5 mph 29.0 mph 64 % 0.00 in
11:13 21.5 °F 11.5 °F 30.23 in NW 6.9 mph 29.0 mph 65 % 0.00 in
11:18 21.5 °F 11.9 °F 30.23 in WNW 8.7 mph 29.0 mph 66 % 0.00 in
11:23 21.5 °F 11.2 °F 30.23 in NNW 6.9 mph 29.0 mph 64 % 0.00 in
11:29 21.5 °F 11.9 °F 30.23 in WNW 4.2 mph 29.0 mph 66 % 0.00 in
11:33 21.5 °F 11.9 °F 30.24 in NW 4.1 mph 29.0 mph 66 % 0.00 in
11:39 21.5 °F 11.9 °F 30.24 in NW 7.8 mph 29.0 mph 66 % 0.00 in
11:44 21.7 °F 11.4 °F 30.23 in WNW 5.5 mph 29.0 mph 64 % 0.00 in
11:49 21.8 °F 11.5 °F 30.23 in NNW 6.7 mph 29.0 mph 64 % 0.00 in
11:54 21.7 °F 11.4 °F 30.22 in SW 6.8 mph 29.0 mph 64 % 0.00 in
11:59 21.6 °F 11.3 °F 30.22 in WNW 4.9 mph 29.0 mph 64 % 0.00 in
12:04 21.7 °F 11.4 °F 30.22 in WNW 6.6 mph 29.0 mph 64 % 0.00 in
12:09 21.7 °F 11.0 °F 30.22 in WSW 8.8 mph 29.0 mph 63 % 0.00 in
12:14 21.8 °F 11.5 °F 30.23 in North 9.4 mph 29.0 mph 64 % 0.00 in
12:19 21.8 °F 11.1 °F 30.23 in West 6.2 mph 29.0 mph 63 % 0.00 in
12:24 21.8 °F 11.1 °F 30.23 in WNW 8.6 mph 29.0 mph 63 % 0.00 in
12:29 21.6 °F 10.6 °F 30.22 in NW 10.1 mph 29.0 mph 62 % 0.00 in
12:35 21.6 °F 10.6 °F 30.22 in WNW 9.2 mph 29.0 mph 62 % 0.00 in
12:40 21.6 °F 10.6 °F 30.22 in WNW 6.2 mph 29.0 mph 62 % 0.00 in
12:45 21.7 °F 10.7 °F 30.22 in NW 7.6 mph 29.0 mph 62 % 0.00 in
12:50 21.9 °F 10.9 °F 30.22 in NW 6.6 mph 29.0 mph 62 % 0.00 in
12:55 22.0 °F 11.0 °F 30.22 in WNW 6.0 mph 29.0 mph 62 % 0.00 in
13:00 21.9 °F 10.9 °F 30.22 in NW 5.4 mph 29.0 mph 62 % 0.00 in
13:05 21.7 °F 10.7 °F 30.22 in NNW 6.7 mph 29.0 mph 62 % 0.00 in
13:10 21.6 °F 10.2 °F 30.23 in NW 8.0 mph 29.0 mph 61 % 0.00 in
13:15 21.7 °F 9.9 °F 30.23 in NNW 9.9 mph 29.0 mph 60 % 0.00 in
13:20 21.7 °F 9.6 °F 30.23 in West 6.9 mph 29.0 mph 59 % 0.00 in
13:25 21.9 °F 10.1 °F 30.23 in NW 6.7 mph 29.0 mph 60 % 0.00 in
13:30 22.3 °F 10.5 °F 30.23 in WNW 3.4 mph 29.0 mph 60 % 0.00 in
13:36 22.7 °F 10.9 °F 30.23 in WNW 3.9 mph 29.0 mph 60 % 0.00 in
13:41 22.9 °F 11.1 °F 30.23 in West 8.8 mph 29.0 mph 60 % 0.00 in
13:44 23.0 °F 11.2 °F 30.24 in WSW 7.4 mph 29.0 mph 60 % 0.00 in
13:49 23.2 °F 11.4 °F 30.24 in NW 11.2 mph 29.0 mph 60 % 0.00 in
13:54 23.1 °F 10.5 °F 30.24 in West 7.0 mph 29.0 mph 58 % 0.00 in
13:59 22.9 °F 10.7 °F 30.24 in NW 4.9 mph 29.0 mph 59 % 0.00 in
14:04 23.0 °F 11.5 °F 30.24 in WNW 6.5 mph 29.0 mph 61 % 0.00 in
14:09 23.2 °F 11.4 °F 30.24 in West 8.1 mph 29.0 mph 60 % 0.00 in
14:14 23.4 °F 11.5 °F 30.24 in WNW 5.8 mph 29.0 mph 60 % 0.00 in
14:19 23.5 °F 12.0 °F 30.24 in WNW 5.3 mph 29.0 mph 61 % 0.00 in
14:24 23.6 °F 12.5 °F 30.25 in NW 3.6 mph 29.0 mph 62 % 0.00 in
14:29 23.5 °F 12.0 °F 30.25 in WNW 10.7 mph 29.0 mph 61 % 0.00 in
14:35 23.3 °F 11.8 °F 30.25 in West 8.2 mph 29.0 mph 61 % 0.00 in
14:40 23.2 °F 11.7 °F 30.26 in NW 9.0 mph 29.0 mph 61 % 0.00 in
14:45 23.1 °F 12.0 °F 30.26 in WNW 6.9 mph 29.0 mph 62 % 0.00 in
14:50 23.1 °F 12.0 °F 30.26 in NW 4.2 mph 29.0 mph 62 % 0.00 in
14:55 23.2 °F 12.5 °F 30.27 in WNW 7.9 mph 29.0 mph 63 % 0.00 in
15:00 23.1 °F 12.0 °F 30.27 in WSW 8.0 mph 29.0 mph 62 % 0.00 in
15:05 23.0 °F 11.5 °F 30.27 in West 6.8 mph 29.0 mph 61 % 0.00 in
15:10 22.9 °F 11.8 °F 30.27 in West 7.0 mph 29.0 mph 62 % 0.00 in
15:15 23.0 °F 11.9 °F 30.28 in WNW 8.5 mph 29.0 mph 62 % 0.00 in
15:20 23.1 °F 12.0 °F 30.28 in NNW 6.2 mph 29.0 mph 62 % 0.00 in
15:25 23.1 °F 11.3 °F 30.28 in NW 5.9 mph 29.0 mph 60 % 0.00 in
15:31 23.3 °F 11.4 °F 30.28 in WNW 5.4 mph 29.0 mph 60 % 0.00 in
15:36 23.3 °F 11.4 °F 30.28 in NW 7.2 mph 29.0 mph 60 % 0.00 in
15:41 23.4 °F 11.2 °F 30.28 in NW 5.8 mph 29.0 mph 59 % 0.00 in
15:46 23.4 °F 11.2 °F 30.29 in WNW 4.4 mph 29.0 mph 59 % 0.00 in
15:51 23.5 °F 11.3 °F 30.29 in NNW 7.8 mph 29.0 mph 59 % 0.00 in
15:56 23.5 °F 11.3 °F 30.29 in WNW 4.0 mph 29.0 mph 59 % 0.00 in
16:01 23.5 °F 11.3 °F 30.29 in NNW 9.0 mph 29.0 mph 59 % 0.00 in
16:06 23.4 °F 11.2 °F 30.30 in NW 5.7 mph 29.0 mph 59 % 0.00 in
16:11 23.4 °F 11.5 °F 30.30 in West 5.1 mph 29.0 mph 60 % 0.00 in
16:16 23.4 °F 11.2 °F 30.30 in NW 7.7 mph 29.0 mph 59 % 0.00 in
16:22 23.4 °F 10.8 °F 30.30 in NNW 5.1 mph 29.0 mph 58 % 0.00 in
16:27 23.5 °F 10.9 °F 30.31 in West 7.8 mph 29.0 mph 58 % 0.00 in
16:32 23.5 °F 11.3 °F 30.31 in NW 5.3 mph 29.0 mph 59 % 0.00 in
16:37 23.5 °F 11.3 °F 30.31 in NNW 5.4 mph 29.0 mph 59 % 0.00 in
16:42 23.6 °F 11.7 °F 30.32 in WSW 7.2 mph 29.0 mph 60 % 0.00 in
16:47 23.6 °F 11.7 °F 30.32 in West 4.3 mph 29.0 mph 60 % 0.00 in
16:52 23.5 °F 10.9 °F 30.32 in WNW 8.3 mph 29.0 mph 58 % 0.00 in
16:57 23.5 °F 10.1 °F 30.32 in West 3.8 mph 29.0 mph 56 % 0.00 in
17:02 23.6 °F 8.9 °F 30.32 in NW 7.7 mph 29.0 mph 53 % 0.00 in
17:07 23.6 °F 8.9 °F 30.32 in WSW 10.3 mph 29.0 mph 53 % 0.00 in
17:12 23.6 °F 8.9 °F 30.32 in WNW 8.1 mph 29.0 mph 53 % 0.00 in
17:17 23.6 °F 9.8 °F 30.33 in NW 8.1 mph 29.0 mph 55 % 0.00 in
17:22 23.8 °F 10.4 °F 30.33 in NW 9.3 mph 29.0 mph 56 % 0.00 in
17:27 23.8 °F 9.6 °F 30.33 in NW 8.8 mph 29.0 mph 54 % 0.00 in
17:32 23.8 °F 10.4 °F 30.34 in NW 7.4 mph 29.0 mph 56 % 0.00 in
17:37 23.9 °F 10.5 °F 30.34 in NNW 8.6 mph 29.0 mph 56 % 0.00 in
17:43 23.9 °F 10.1 °F 30.35 in NNW 8.1 mph 29.0 mph 55 % 0.00 in
17:48 23.8 °F 9.6 °F 30.35 in West 7.5 mph 29.0 mph 54 % 0.00 in
17:53 23.7 °F 9.9 °F 30.35 in NW 9.0 mph 29.0 mph 55 % 0.00 in
17:58 23.6 °F 9.8 °F 30.36 in WNW 8.0 mph 29.0 mph 55 % 0.00 in
18:03 23.5 °F 9.3 °F 30.36 in WNW 12.2 mph 29.0 mph 54 % 0.00 in
18:08 23.4 °F 9.6 °F 30.37 in NW 8.6 mph 29.0 mph 55 % 0.00 in
18:13 23.4 °F 10.4 °F 30.37 in NW 8.9 mph 29.0 mph 57 % 0.00 in
18:18 23.3 °F 9.9 °F 30.38 in NNW 9.0 mph 29.0 mph 56 % 0.00 in
18:23 23.2 °F 9.4 °F 30.39 in NW 10.9 mph 29.0 mph 55 % 0.00 in
18:28 23.0 °F 9.2 °F 30.39 in WNW 8.2 mph 29.0 mph 55 % 0.00 in
18:33 22.9 °F 9.5 °F 30.39 in North 6.0 mph 29.0 mph 56 % 0.00 in
18:38 22.8 °F 9.0 °F 30.40 in NW 8.4 mph 29.0 mph 55 % 0.00 in
18:43 22.7 °F 8.9 °F 30.40 in NW 6.2 mph 29.0 mph 55 % 0.00 in
18:48 22.6 °F 9.6 °F 30.40 in WSW 5.0 mph 29.0 mph 57 % 0.00 in
18:53 22.6 °F 9.2 °F 30.41 in NNW 7.2 mph 29.0 mph 56 % 0.00 in
18:59 22.5 °F 9.5 °F 30.41 in WNW 5.7 mph 29.0 mph 57 % 0.00 in
19:04 22.6 °F 9.6 °F 30.41 in NW 6.1 mph 29.0 mph 57 % 0.00 in
19:09 22.5 °F 9.5 °F 30.42 in WNW 5.1 mph 29.0 mph 57 % 0.00 in
19:14 22.5 °F 7.9 °F 30.42 in NW 9.9 mph 29.0 mph 53 % 0.00 in
19:19 22.5 °F 8.7 °F 30.42 in WNW 8.7 mph 29.0 mph 55 % 0.00 in
19:24 22.5 °F 8.3 °F 30.42 in NW 11.9 mph 29.0 mph 54 % 0.00 in
19:29 22.5 °F 7.5 °F 30.43 in NW 11.7 mph 29.0 mph 52 % 0.00 in
19:34 22.5 °F 7.9 °F 30.43 in NW 9.0 mph 18.0 mph 53 % 0.00 in
19:39 22.4 °F 7.4 °F 30.43 in WNW 13.0 mph 24.0 mph 52 % 0.00 in
19:44 22.3 °F 7.7 °F 30.43 in WNW 9.0 mph 21.0 mph 53 % 0.00 in
19:49 22.2 °F 7.6 °F 30.43 in West 9.4 mph 29.0 mph 53 % 0.00 in
19:54 22.2 °F 7.6 °F 30.44 in WNW 10.0 mph 23.0 mph 53 % 0.00 in
19:59 22.1 °F 7.1 °F 30.44 in NW 6.4 mph 29.0 mph 52 % 0.00 in
20:04 22.0 °F 7.5 °F 30.45 in NNW 7.9 mph 29.0 mph 53 % 0.00 in
20:09 21.8 °F 7.3 °F 30.45 in WNW 6.6 mph 29.0 mph 53 % 0.00 in
20:14 21.7 °F 7.6 °F 30.45 in NW 4.6 mph 29.0 mph 54 % 0.00 in
20:19 21.6 °F 7.9 °F 30.45 in WNW 8.9 mph 29.0 mph 55 % 0.00 in
20:24 21.5 °F 8.6 °F 30.46 in NNW 7.6 mph 29.0 mph 57 % 0.00 in
20:29 21.5 °F 7.8 °F 30.46 in WNW 8.0 mph 29.0 mph 55 % 0.00 in
20:34 21.5 °F 8.6 °F 30.46 in NW 12.9 mph 29.0 mph 57 % 0.00 in
20:39 21.4 °F 8.5 °F 30.47 in WNW 7.3 mph 29.0 mph 57 % 0.00 in
20:45 21.3 °F 8.8 °F 30.47 in West 6.0 mph 29.0 mph 58 % 0.00 in
20:50 21.2 °F 8.3 °F 30.47 in WNW 8.7 mph 29.0 mph 57 % 0.00 in
20:55 21.2 °F 9.1 °F 30.47 in NW 7.5 mph 29.0 mph 59 % 0.00 in
21:00 21.1 °F 8.2 °F 30.47 in NW 6.4 mph 29.0 mph 57 % 0.00 in
21:05 21.1 °F 9.0 °F 30.48 in WNW 6.2 mph 29.0 mph 59 % 0.00 in
21:10 21.0 °F 8.5 °F 30.48 in West 6.7 mph 29.0 mph 58 % 0.00 in
21:15 20.9 °F 8.4 °F 30.49 in WSW 6.1 mph 29.0 mph 58 % 0.00 in
21:20 20.9 °F 9.2 °F 30.49 in SW 9.4 mph 29.0 mph 60 % 0.00 in
21:25 20.8 °F 9.1 °F 30.49 in North 4.7 mph 29.0 mph 60 % 0.00 in
21:30 20.8 °F 8.7 °F 30.49 in NW 5.9 mph 29.0 mph 59 % 0.00 in
21:35 20.7 °F 8.6 °F 30.50 in NW 10.0 mph 29.0 mph 59 % 0.00 in
21:40 20.6 °F 8.1 °F 30.50 in NW 5.7 mph 29.0 mph 58 % 0.00 in
21:45 20.5 °F 8.8 °F 30.50 in WNW 3.8 mph 29.0 mph 60 % 0.00 in
21:50 20.5 °F 8.4 °F 30.50 in NW 10.1 mph 29.0 mph 59 % 0.00 in
21:55 20.4 °F 9.1 °F 30.51 in WNW 8.0 mph 29.0 mph 61 % 0.00 in
22:00 20.4 °F 9.1 °F 30.51 in North 6.5 mph 29.0 mph 61 % 0.00 in
22:05 20.3 °F 8.6 °F 30.51 in West 8.5 mph 29.0 mph 60 % 0.00 in
22:11 20.2 °F 8.9 °F 30.52 in NW 7.1 mph 29.0 mph 61 % 0.00 in
22:16 20.2 °F 8.5 °F 30.52 in NNW 7.3 mph 29.0 mph 60 % 0.00 in
22:21 20.1 °F 8.8 °F 30.52 in NW 6.6 mph 29.0 mph 61 % 0.00 in
22:26 20.1 °F 8.8 °F 30.52 in NW 6.4 mph 29.0 mph 61 % 0.00 in
22:31 20.0 °F 8.7 °F 30.53 in West 6.0 mph 29.0 mph 61 % 0.00 in
22:36 20.0 °F 8.7 °F 30.53 in West 7.7 mph 29.0 mph 61 % 0.00 in
22:41 19.8 °F 8.5 °F 30.53 in NW 9.2 mph 29.0 mph 61 % 0.00 in
22:46 19.8 °F 8.9 °F 30.53 in West 8.7 mph 29.0 mph 62 % 0.00 in
22:51 19.7 °F 8.8 °F 30.54 in NW 7.7 mph 29.0 mph 62 % 0.00 in
22:56 19.7 °F 8.8 °F 30.54 in NW 8.1 mph 29.0 mph 62 % 0.00 in
23:01 19.6 °F 8.7 °F 30.54 in WNW 8.4 mph 29.0 mph 62 % 0.00 in
23:06 19.6 °F 9.0 °F 30.54 in WNW 8.1 mph 29.0 mph 63 % 0.00 in
23:11 19.6 °F 8.7 °F 30.54 in NW 7.8 mph 29.0 mph 62 % 0.00 in
23:16 19.5 °F 8.6 °F 30.54 in WNW 6.5 mph 29.0 mph 62 % 0.00 in
23:22 19.5 °F 8.6 °F 30.54 in NW 5.7 mph 29.0 mph 62 % 0.00 in
23:27 19.5 °F 8.9 °F 30.55 in WNW 9.2 mph 29.0 mph 63 % 0.00 in
23:32 19.4 °F 8.8 °F 30.54 in SW 10.2 mph 29.0 mph 63 % 0.00 in
23:37 19.4 °F 8.8 °F 30.54 in NW 7.4 mph 29.0 mph 63 % 0.00 in
23:42 19.3 °F 9.1 °F 30.55 in NW 7.9 mph 29.0 mph 64 % 0.00 in
23:47 19.4 °F 9.2 °F 30.54 in West 6.9 mph 29.0 mph 64 % 0.00 in
23:52 19.3 °F 8.8 °F 30.55 in West 6.7 mph 29.0 mph 63 % 0.00 in
23:57 19.3 °F 8.8 °F 30.55 in WNW 4.2 mph 29.0 mph 63 % 0.00 in
Crab Meadow Weather
Compliments of Weather Underground - 3 mb

Script developed by  Jim McMurry - jmcmurry@mwt.net Adapted for the template by  Wim van der Kuil - Leuven-Template.eu

Rain: The total amount of precipitation the earth receives each year as snow, hail, and rain is equivalent to 10 million gallons of water for every person in the United States.